Regional Weather Roundup
Issued by NWS

Home | Current Version | Previous Version | Text Only | Print | Product List | Glossary Off
Versions: 1 2 3 4 5 6 7 8 9 10 11 12 13 14 15 16 17 18 19 20 21 22 23 24 25 26 27 28 29 30 31 32 33 34 35 36 37 38 39 40 41 42 43 44 45 46 47 48 49 50

000
ASUS43 KOAX 031510
RWRNE

WEATHER ROUNDUP FOR NEBRASKA
NATIONAL WEATHER SERVICE OMAHA NE
900 AM CST TUE MAR 03 2015

NOTES: SATELLITE DATA IS BEING USED TO AUGMENT CLOUD COVER ABOVE
       12000 FEET.
       "FAIR" INDICATES FEW OR NO CLOUDS BELOW 12,000 FEET WITH NO
       SIGNIFICANT WEATHER AND/OR OBSTRUCTIONS TO VISIBILITY.

  * THESE STATIONS DO NOT REPORT WEATHER SUCH AS RAIN...SNOW OR FOG.

NEZ001>004-019>022-054>056-031600-
NEBRASKA PANHANDLE

CITY           SKY/WX    TMP DP  RH WIND       PRES   REMARKS
SCOTTSBLUFF    LGT SNOW  18  11  74 N17       29.96R WCI   3
ALLIANCE       LGT SNOW  16  10  77 N21G30    29.93R WCI  -1
CHADRON        HAZE      16   9  74 N24G32    30.00R VSB 1   WCI  -2
KIMBALL        LGT SNOW  16  12  84 N23G31    29.84R WCI  -2
SIDNEY         LGT SNOW  17  10  74 N29G40    29.87R WCI  -2
$$

NEZ057>060-069>072-079>082-031600-
SOUTHWEST NEBRASKA

CITY           SKY/WX    TMP DP  RH WIND       PRES   REMARKS
NORTH PLATTE   CLOUDY    22  12  65 N29G38    29.89R WCI   4
IMPERIAL         N/A     25  15  66 N31G41    29.86R WCI   8
LEXINGTON      CLOUDY    30  22  72 N26G36    29.83R WCI  16
MCCOOK         CLOUDY    34  25  69 N24G36    29.82R WCI  21
OGALLALA       CLOUDY    21  15  79 N29G44    29.86R WCI   2
$$

NEZ005>010-023>029-035>040-094-031600-
NORTH CENTRAL NEBRASKA

CITY           SKY/WX    TMP DP  RH WIND       PRES   REMARKS
VALENTINE      MIX PCPN  16  10  77 N22G35    29.94R WCI  -2
AINSWORTH      CLOUDY    18  12  78 NW30G37   29.90R HAZE    WCI  -2
BROKEN BOW     CLOUDY    23  13  65 N40G53    29.82R WCI   3
O`NEILL        LGT SNOW  22  17  81 N33G45    29.84R WCI   3
ORD            CLOUDY    25  16  68 NW30G40   29.82R WCI   8
THEDFORD       LGT SNOW  19  13  76 N28G40    29.88R WCI   1
$$

NEZ041-046>049-061>064-073>077-083>087-031600-
SOUTH CENTRAL NEBRASKA

CITY           SKY/WX    TMP DP  RH WIND       PRES   REMARKS
GRAND ISLAND   CLOUDY    31  23  72 NW15      29.77R WCI  20
AURORA         CLOUDY    32  25  76 NW17      29.76R WCI  21
HASTINGS       CLOUDY    32  23  69 NW17      29.76R WCI  21
HEBRON         PTSUNNY   35  27  72 NW15G23   29.75R WCI  26
HOLDREGE       CLOUDY    31  24  76 NW15G21   29.79R WCI  20
KEARNEY *      CLOUDY    30  23  74 NW15      29.79R WCI  19
YORK           CLOUDY    32  27  80 NW20      29.75R WCI  20
$$

NEZ011>018-030>034-042>045-031600-
NORTHEAST NEBRASKA

CITY           SKY/WX    TMP DP  RH WIND       PRES   REMARKS
NORFOLK        CLOUDY    31  24  75 W10       29.74R WCI  22
ALBION         CLOUDY    31  23  71 NW13G18   29.76R WCI  22
BLAIR          CLOUDY    32  31  96 W9        29.71R FOG     WCI  24
COLUMBUS *     CLOUDY    30  21  69 W12       29.77R WCI  21
FREMONT        CLOUDY    32  32  99 W15       29.74R FOG     WCI  22
TEKAMAH        CLOUDY    32  29  88 NW13      29.73R FOG     WCI  22
WAYNE          FLURRIES  31  26  81 NW13      29.74R WCI  21
$$

NEZ050>053-065>068-078-088>093-031600-
SOUTHEAST NEBRASKA

CITY           SKY/WX    TMP DP  RH WIND       PRES   REMARKS
LINCOLN        CLOUDY    34  30  85 NW16      29.75R FOG     WCI  24
OMAHA EPPLEY   FRZ DRZL  33  31  92 NW8       29.72R FOG     WCI  26
BEATRICE       CLOUDY    37  32  84 NW12      29.72R WCI  29
FALLS CITY     CLOUDY    39  35  86 SW12      29.71R WCI  32
NEBRASKA CITY  CLOUDY    35  35 100 W8        29.71R FOG     WCI  29
PLATTSMOUTH    CLOUDY    33  32  96 W7        29.72R FOG     WCI  27
$$

NEZ044-045-051>053-067-031600-
OMAHA AREA

CITY           SKY/WX    TMP DP  RH WIND       PRES   REMARKS
OMAHA EPPLEY   FRZ DRZL  33  31  92 NW8       29.72R FOG     WCI  26
BLAIR          CLOUDY    32  31  96 W9        29.71R FOG     WCI  24
FREMONT        CLOUDY    32  32  99 W15       29.74R FOG     WCI  22
MILLARD        CLOUDY    33  32  96 W12       29.73R FOG     WCI  24
OFFUTT AFB     CLOUDY    33  32  97 W7        29.72R FOG     WCI  26
PLATTSMOUTH    CLOUDY    33  32  96 W7        29.72R FOG     WCI  27
WAHOO          CLOUDY    33  29  87 NW16      29.74R FOG     WCI  22
$$



USA.gov is the U.S. government's official web portal to all federal, state and local government web resources and services.